Language: 


Des rapports , des résumés tant et plus, au choix de chacun....


Données statistiques de la station
Quotidien Rapport Février 10, 2017 Unités:  Métrique    Anglais   les deux
« Précédent Jour
Suivant Jour »
Quotidien Hebdomadaire Mensuel Annuel Actuel
  Haut: Bas: Moyen:
Température: 0.7 °C -1.3 °C -0.1 °C
Pt de rosée: 0.3 °C -1.6 °C -0.9 °C
Humidité: 98 % 87 % 95 %
Vitesse du vent: 16.9 km/h 0.0 km/h 9.3 km/h
Rafales: 28.8 km/h - -
Vent:- - ENE
Pression: 1022.9 hPa 1018.8 hPa -
Précipitation: 0.0 mm    
Historical Graphs
 
 
Données statistiques pour Février 10, 2017
Heure Température Point de rosée Pression Vent Vitesse du vent Refales Humidité Pluie (taux horaire)
00:00 0.7 °C 0.3 °C 1022.9 hPa NE 6.1 km/h 10.1 km/h 97 % 0.0 mm
00:02 0.7 °C 0.3 °C 1022.9 hPa NE 5.8 km/h 10.5 km/h 97 % 0.0 mm
00:07 0.7 °C 0.3 °C 1021.9 hPa NE 6.4 km/h 10.5 km/h 97 % 0.0 mm
00:13 0.6 °C 0.2 °C 1021.9 hPa NE 10.1 km/h 10.5 km/h 97 % 0.0 mm
00:18 0.6 °C 0.2 °C 1021.9 hPa NNE 9.7 km/h 10.5 km/h 97 % 0.0 mm
00:23 0.5 °C 0.2 °C 1021.9 hPa NE 8.7 km/h 13.7 km/h 98 % 0.0 mm
00:28 0.5 °C 0.2 °C 1021.9 hPa NE 9.0 km/h 13.7 km/h 98 % 0.0 mm
00:33 0.5 °C 0.2 °C 1021.9 hPa NE 10.1 km/h 11.6 km/h 98 % 0.0 mm
00:38 0.4 °C 0.1 °C 1021.9 hPa NNE 12.6 km/h 12.6 km/h 98 % 0.0 mm
00:43 0.4 °C 0.1 °C 1021.9 hPa NE 9.7 km/h 12.6 km/h 98 % 0.0 mm
00:48 0.4 °C 0.1 °C 1021.9 hPa NNE 10.1 km/h 12.2 km/h 98 % 0.0 mm
00:53 0.4 °C 0.1 °C 1021.9 hPa NE 6.1 km/h 12.2 km/h 98 % 0.0 mm
00:58 0.4 °C 0.1 °C 1021.9 hPa NE 11.6 km/h 13.0 km/h 98 % 0.0 mm
01:03 0.4 °C 0.1 °C 1021.9 hPa NNE 10.1 km/h 13.0 km/h 98 % 0.0 mm
01:08 0.3 °C 0.0 °C 1021.9 hPa NE 11.6 km/h 13.0 km/h 98 % 0.0 mm
01:13 0.3 °C 0.0 °C 1021.9 hPa NNE 10.1 km/h 13.0 km/h 98 % 0.0 mm
01:18 0.3 °C 0.0 °C 1021.9 hPa NE 9.3 km/h 12.2 km/h 98 % 0.0 mm
01:23 0.3 °C 0.0 °C 1021.9 hPa North 10.5 km/h 13.7 km/h 98 % 0.0 mm
01:28 0.3 °C 0.0 °C 1021.9 hPa NE 11.9 km/h 13.7 km/h 98 % 0.0 mm
01:33 0.3 °C 0.0 °C 1021.9 hPa NE 10.1 km/h 13.7 km/h 98 % 0.0 mm
01:38 0.3 °C 0.0 °C 1021.9 hPa NE 9.3 km/h 12.6 km/h 98 % 0.0 mm
01:43 0.2 °C -0.1 °C 1021.9 hPa NE 6.9 km/h 12.6 km/h 98 % 0.0 mm
01:48 0.2 °C -0.1 °C 1021.9 hPa NE 11.6 km/h 12.6 km/h 98 % 0.0 mm
01:53 0.2 °C -0.1 °C 1020.9 hPa NE 10.5 km/h 12.6 km/h 98 % 0.0 mm
01:58 0.1 °C -0.2 °C 1020.9 hPa ENE 9.0 km/h 12.6 km/h 98 % 0.0 mm
02:03 0.1 °C -0.2 °C 1020.9 hPa NE 9.3 km/h 11.9 km/h 98 % 0.0 mm
02:09 0.1 °C -0.2 °C 1020.9 hPa NE 9.3 km/h 11.9 km/h 98 % 0.0 mm
02:14 0.1 °C -0.2 °C 1020.9 hPa ENE 8.7 km/h 13.0 km/h 98 % 0.0 mm
02:19 0.1 °C -0.2 °C 1020.9 hPa NE 9.7 km/h 13.0 km/h 98 % 0.0 mm
02:24 0.1 °C -0.2 °C 1020.9 hPa NE 7.9 km/h 12.6 km/h 98 % 0.0 mm
02:29 0.1 °C -0.2 °C 1020.9 hPa North 6.4 km/h 12.2 km/h 98 % 0.0 mm
02:34 0.0 °C -0.3 °C 1020.9 hPa NE 8.7 km/h 12.2 km/h 98 % 0.0 mm
02:39 0.0 °C -0.3 °C 1020.9 hPa NE 5.0 km/h 11.9 km/h 98 % 0.0 mm
02:44 -0.1 °C -0.4 °C 1020.9 hPa NNE 6.4 km/h 10.5 km/h 98 % 0.0 mm
02:47 -0.1 °C -0.4 °C 1020.9 hPa NE 10.1 km/h 10.5 km/h 98 % 0.0 mm
02:52 -0.1 °C -0.4 °C 1020.9 hPa NNE 11.6 km/h 12.2 km/h 98 % 0.0 mm
02:57 -0.1 °C -0.4 °C 1020.9 hPa NE 8.7 km/h 12.2 km/h 98 % 0.0 mm
03:02 -0.2 °C -0.5 °C 1020.9 hPa NNE 8.7 km/h 13.0 km/h 98 % 0.0 mm
03:07 -0.2 °C -0.5 °C 1020.9 hPa NE 9.7 km/h 12.2 km/h 98 % 0.0 mm
03:12 -0.3 °C -0.6 °C 1020.9 hPa North 9.3 km/h 11.9 km/h 98 % 0.0 mm
03:13 -0.3 °C -0.6 °C 1020.9 hPa North 8.7 km/h 11.9 km/h 98 % 0.0 mm
03:18 -0.3 °C -0.6 °C 1020.9 hPa NNE 6.9 km/h 11.9 km/h 98 % 0.0 mm
03:23 -0.3 °C -0.6 °C 1020.9 hPa NNE 8.7 km/h 11.6 km/h 98 % 0.0 mm
03:28 -0.4 °C -0.7 °C 1020.9 hPa NE 10.1 km/h 10.8 km/h 98 % 0.0 mm
03:33 -0.4 °C -0.7 °C 1020.9 hPa NE 8.7 km/h 10.8 km/h 98 % 0.0 mm
03:38 -0.4 °C -0.7 °C 1020.9 hPa NNE 6.1 km/h 9.7 km/h 98 % 0.0 mm
03:40 -0.4 °C -0.7 °C 1020.9 hPa NNE 7.6 km/h 10.1 km/h 98 % 0.0 mm
03:43 -0.4 °C -0.7 °C 1020.9 hPa NE 10.1 km/h 10.5 km/h 98 % 0.0 mm
03:48 -0.4 °C -0.7 °C 1020.9 hPa NNE 9.7 km/h 10.5 km/h 98 % 0.0 mm
03:53 -0.4 °C -0.7 °C 1019.9 hPa NE 8.7 km/h 10.1 km/h 98 % 0.0 mm
03:58 -0.4 °C -0.7 °C 1019.9 hPa North 9.0 km/h 10.5 km/h 98 % 0.0 mm
04:03 -0.4 °C -0.7 °C 1019.9 hPa NE 7.9 km/h 10.5 km/h 98 % 0.0 mm
04:08 -0.4 °C -0.7 °C 1020.9 hPa NNE 5.0 km/h 10.1 km/h 98 % 0.0 mm
04:13 -0.4 °C -0.7 °C 1020.9 hPa NE 9.3 km/h 10.1 km/h 98 % 0.0 mm
04:18 -0.4 °C -0.7 °C 1020.9 hPa NNE 7.6 km/h 9.3 km/h 98 % 0.0 mm
04:23 -0.4 °C -0.7 °C 1020.9 hPa NE 5.0 km/h 9.3 km/h 98 % 0.0 mm
04:28 -0.5 °C -0.8 °C 1020.9 hPa NE 4.7 km/h 9.3 km/h 98 % 0.0 mm
04:33 -0.5 °C -0.8 °C 1020.9 hPa NE 9.0 km/h 9.0 km/h 98 % 0.0 mm
04:38 -0.5 °C -0.8 °C 1020.9 hPa ENE 8.7 km/h 9.0 km/h 98 % 0.0 mm
04:43 -0.5 °C -0.8 °C 1020.9 hPa East 2.6 km/h 10.1 km/h 98 % 0.0 mm
04:48 -0.5 °C -0.8 °C 1020.9 hPa NE 7.9 km/h 11.6 km/h 98 % 0.0 mm
04:53 -0.5 °C -0.8 °C 1020.9 hPa NE 7.9 km/h 11.9 km/h 98 % 0.0 mm
04:58 -0.5 °C -0.8 °C 1020.9 hPa East 8.7 km/h 13.0 km/h 98 % 0.0 mm
05:03 -0.5 °C -0.8 °C 1020.9 hPa ENE 5.8 km/h 13.0 km/h 98 % 0.0 mm
05:08 -0.5 °C -0.8 °C 1020.9 hPa ENE 10.8 km/h 11.9 km/h 98 % 0.0 mm
05:13 -0.5 °C -0.8 °C 1020.9 hPa ENE 6.1 km/h 13.0 km/h 98 % 0.0 mm
05:16 -0.5 °C -0.8 °C 1020.9 hPa ENE 8.7 km/h 13.0 km/h 98 % 0.0 mm
05:21 -0.5 °C -0.8 °C 1020.9 hPa East 5.8 km/h 13.0 km/h 98 % 0.0 mm
05:26 -0.5 °C -0.8 °C 1020.9 hPa East 5.8 km/h 10.5 km/h 98 % 0.0 mm
05:28 -0.5 °C -0.8 °C 1020.9 hPa ENE 6.9 km/h 10.5 km/h 98 % 0.0 mm
05:33 -0.5 °C -0.8 °C 1020.9 hPa ENE 6.4 km/h 10.1 km/h 98 % 0.0 mm
05:38 -0.5 °C -0.8 °C 1020.9 hPa NNE 6.9 km/h 10.1 km/h 98 % 0.0 mm
05:43 -0.5 °C -0.8 °C 1020.9 hPa NE 9.3 km/h 10.1 km/h 98 % 0.0 mm
05:48 -0.5 °C -0.8 °C 1020.9 hPa ENE 9.0 km/h 12.2 km/h 98 % 0.0 mm
05:53 -0.5 °C -0.8 °C 1020.9 hPa ENE 9.7 km/h 12.2 km/h 98 % 0.0 mm
05:58 -0.5 °C -0.8 °C 1020.9 hPa NE 10.1 km/h 12.2 km/h 98 % 0.0 mm
06:03 -0.6 °C -0.9 °C 1020.9 hPa NE 11.9 km/h 14.0 km/h 98 % 0.0 mm
06:08 -0.6 °C -0.9 °C 1020.9 hPa NNE 9.3 km/h 14.0 km/h 98 % 0.0 mm
06:13 -0.7 °C -0.9 °C 1020.9 hPa NNE 9.0 km/h 13.7 km/h 98 % 0.0 mm
06:18 -0.8 °C -1.1 °C 1020.9 hPa NE 9.3 km/h 12.2 km/h 98 % 0.0 mm
06:23 -0.8 °C -1.1 °C 1020.9 hPa NNE 9.3 km/h 11.6 km/h 98 % 0.0 mm
06:28 -0.8 °C -1.1 °C 1020.9 hPa NNE 7.9 km/h 10.8 km/h 98 % 0.0 mm
06:33 -0.9 °C -1.2 °C 1020.9 hPa NNE 6.4 km/h 12.2 km/h 98 % 0.0 mm
06:38 -0.9 °C -1.2 °C 1020.9 hPa NNE 9.7 km/h 12.2 km/h 98 % 0.0 mm
06:43 -0.9 °C -1.2 °C 1020.9 hPa NNE 13.7 km/h 15.8 km/h 98 % 0.0 mm
06:48 -0.9 °C -1.2 °C 1020.9 hPa NE 7.9 km/h 15.8 km/h 98 % 0.0 mm
06:53 -0.9 °C -1.2 °C 1020.9 hPa NE 13.7 km/h 15.1 km/h 98 % 0.0 mm
06:58 -1.0 °C -1.3 °C 1020.9 hPa NE 7.9 km/h 14.0 km/h 98 % 0.0 mm
07:03 -1.0 °C -1.3 °C 1020.9 hPa NE 10.1 km/h 14.0 km/h 98 % 0.0 mm
07:08 -1.0 °C -1.3 °C 1020.9 hPa NE 9.7 km/h 12.6 km/h 98 % 0.0 mm
07:13 -1.0 °C -1.3 °C 1020.9 hPa NE 9.0 km/h 16.6 km/h 98 % 0.0 mm
07:18 -1.0 °C -1.3 °C 1020.9 hPa NE 13.0 km/h 16.6 km/h 98 % 0.0 mm
07:23 -1.0 °C -1.3 °C 1020.9 hPa North 9.3 km/h 15.4 km/h 98 % 0.0 mm
07:28 -1.0 °C -1.3 °C 1020.9 hPa NE 12.6 km/h 15.4 km/h 98 % 0.0 mm
07:33 -1.0 °C -1.3 °C 1020.9 hPa NNE 10.1 km/h 14.0 km/h 98 % 0.0 mm
07:38 -1.0 °C -1.3 °C 1020.9 hPa NE 11.9 km/h 13.7 km/h 98 % 0.0 mm
07:43 -1.0 °C -1.3 °C 1020.9 hPa NE 9.0 km/h 13.7 km/h 98 % 0.0 mm
07:48 -1.0 °C -1.3 °C 1020.9 hPa NE 12.6 km/h 13.7 km/h 98 % 0.0 mm
07:53 -1.0 °C -1.3 °C 1020.9 hPa NE 11.6 km/h 15.8 km/h 98 % 0.0 mm
07:58 -1.1 °C -1.3 °C 1020.9 hPa NE 10.5 km/h 15.8 km/h 98 % 0.0 mm
08:03 -1.1 °C -1.3 °C 1020.9 hPa North 9.3 km/h 13.7 km/h 98 % 0.0 mm
08:08 -1.1 °C -1.3 °C 1020.9 hPa NE 9.3 km/h 13.7 km/h 98 % 0.0 mm
08:13 -1.1 °C -1.3 °C 1020.9 hPa NE 8.7 km/h 13.7 km/h 98 % 0.0 mm
08:18 -1.2 °C -1.4 °C 1020.9 hPa NNE 11.9 km/h 15.4 km/h 98 % 0.0 mm
08:23 -1.2 °C -1.4 °C 1021.9 hPa NE 9.7 km/h 16.3 km/h 98 % 0.0 mm
08:28 -1.3 °C -1.6 °C 1021.9 hPa ENE 12.2 km/h 16.3 km/h 98 % 0.0 mm
08:33 -1.3 °C -1.6 °C 1021.9 hPa NE 9.3 km/h 14.8 km/h 98 % 0.0 mm
08:38 -1.3 °C -1.6 °C 1020.9 hPa ENE 12.6 km/h 13.7 km/h 98 % 0.0 mm
08:43 -1.3 °C -1.6 °C 1020.9 hPa NE 6.4 km/h 13.7 km/h 98 % 0.0 mm
08:48 -1.3 °C -1.6 °C 1020.9 hPa NE 6.1 km/h 12.6 km/h 98 % 0.0 mm
08:53 -1.3 °C -1.6 °C 1020.9 hPa NE 9.3 km/h 12.6 km/h 98 % 0.0 mm
08:58 -1.3 °C -1.6 °C 1020.9 hPa NE 4.3 km/h 12.6 km/h 98 % 0.0 mm
09:03 -1.3 °C -1.6 °C 1020.9 hPa NE 9.3 km/h 12.6 km/h 98 % 0.0 mm
09:08 -1.3 °C -1.6 °C 1020.9 hPa NE 10.5 km/h 12.6 km/h 98 % 0.0 mm
09:13 -1.3 °C -1.6 °C 1020.9 hPa ENE 9.0 km/h 14.0 km/h 98 % 0.0 mm
09:18 -1.3 °C -1.6 °C 1020.9 hPa NE 5.8 km/h 14.0 km/h 98 % 0.0 mm
09:23 -1.2 °C -1.4 °C 1020.9 hPa NE 9.0 km/h 10.1 km/h 98 % 0.0 mm
09:28 -1.2 °C -1.4 °C 1020.9 hPa ENE 4.3 km/h 10.1 km/h 98 % 0.0 mm
09:33 -1.2 °C -1.4 °C 1020.9 hPa NE 8.7 km/h 13.7 km/h 98 % 0.0 mm
09:38 -1.1 °C -1.3 °C 1019.9 hPa ENE 10.1 km/h 13.7 km/h 98 % 0.0 mm
09:43 -1.1 °C -1.3 °C 1019.9 hPa ENE 6.1 km/h 12.6 km/h 98 % 0.0 mm
09:48 -1.0 °C -1.3 °C 1019.9 hPa NE 8.7 km/h 11.1 km/h 98 % 0.0 mm
09:53 -1.0 °C -1.3 °C 1020.9 hPa NE 9.0 km/h 13.0 km/h 98 % 0.0 mm
09:58 -1.1 °C -1.3 °C 1020.9 hPa ENE 9.7 km/h 13.7 km/h 98 % 0.0 mm
10:03 -1.1 °C -1.3 °C 1020.9 hPa NE 8.7 km/h 13.7 km/h 98 % 0.0 mm
10:08 -1.1 °C -1.3 °C 1019.9 hPa NNE 6.1 km/h 12.2 km/h 98 % 0.0 mm
10:13 -1.1 °C -1.3 °C 1019.9 hPa NE 6.9 km/h 10.5 km/h 98 % 0.0 mm
10:18 -1.1 °C -1.3 °C 1019.9 hPa NNE 4.3 km/h 13.0 km/h 98 % 0.0 mm
10:23 -1.0 °C -1.3 °C 1019.9 hPa NE 10.1 km/h 13.0 km/h 98 % 0.0 mm
10:28 -0.9 °C -1.3 °C 1019.9 hPa NNE 12.2 km/h 12.2 km/h 97 % 0.0 mm
10:33 -0.7 °C -0.9 °C 1019.9 hPa NE 6.1 km/h 12.2 km/h 98 % 0.0 mm
10:38 -0.6 °C -1.0 °C 1020.9 hPa NE 8.7 km/h 13.0 km/h 97 % 0.0 mm
10:43 -0.5 °C -0.9 °C 1020.9 hPa NNE 9.0 km/h 13.0 km/h 97 % 0.0 mm
10:48 -0.6 °C -1.0 °C 1020.9 hPa NE 5.5 km/h 13.0 km/h 97 % 0.0 mm
10:53 -0.5 °C -0.9 °C 1020.9 hPa NE 9.7 km/h 13.0 km/h 97 % 0.0 mm
10:58 -0.5 °C -0.9 °C 1020.9 hPa NE 9.7 km/h 28.8 km/h 97 % 0.0 mm
11:03 -0.5 °C -0.9 °C 1020.9 hPa NNE 10.5 km/h 28.8 km/h 97 % 0.0 mm
11:08 -0.4 °C -0.9 °C 1021.9 hPa NE 9.0 km/h 13.0 km/h 96 % 0.0 mm
11:13 -0.3 °C -0.8 °C 1021.9 hPa NNE 6.9 km/h 13.0 km/h 96 % 0.0 mm
11:18 -0.2 °C -0.8 °C 1021.9 hPa Calm   12.2 km/h 96 % 0.0 mm
11:23 -0.1 °C -0.7 °C 1021.9 hPa North 6.9 km/h 12.2 km/h 96 % 0.0 mm
11:28 -0.2 °C -0.8 °C 1021.9 hPa NNE 9.3 km/h 12.6 km/h 96 % 0.0 mm
11:33 -0.2 °C -0.9 °C 1021.9 hPa NE 12.6 km/h 28.8 km/h 95 % 0.0 mm
11:38 -0.1 °C -0.8 °C 1020.9 hPa NE 6.1 km/h 28.8 km/h 95 % 0.0 mm
11:43 -0.1 °C -0.8 °C 1020.9 hPa NE 11.1 km/h 12.2 km/h 95 % 0.0 mm
11:48 -0.1 °C -0.8 °C 1020.9 hPa NNE 10.1 km/h 12.2 km/h 95 % 0.0 mm
11:53 -0.1 °C -0.9 °C 1021.9 hPa NE 10.1 km/h 14.0 km/h 94 % 0.0 mm
11:58 -0.1 °C -0.9 °C 1021.9 hPa NNE 11.9 km/h 16.9 km/h 94 % 0.0 mm
12:03 -0.1 °C -0.9 °C 1021.9 hPa NE 10.1 km/h 16.9 km/h 94 % 0.0 mm
12:08 -0.1 °C -0.9 °C 1020.9 hPa NNE 12.6 km/h 14.8 km/h 94 % 0.0 mm
12:13 -0.1 °C -0.9 °C 1020.9 hPa NE 6.9 km/h 14.8 km/h 94 % 0.0 mm
12:18 -0.1 °C -1.1 °C 1020.9 hPa NNE 13.7 km/h 16.6 km/h 93 % 0.0 mm
12:23 -0.1 °C -1.1 °C 1020.9 hPa NNE 12.2 km/h 16.6 km/h 93 % 0.0 mm
12:28 0.0 °C -1.0 °C 1020.9 hPa ENE 15.4 km/h 16.9 km/h 93 % 0.0 mm
12:33 0.1 °C -0.9 °C 1020.9 hPa NE 7.9 km/h 16.9 km/h 93 % 0.0 mm
12:38 0.3 °C -0.7 °C 1020.9 hPa NNE 7.9 km/h 15.8 km/h 93 % 0.0 mm
12:43 0.4 °C -0.6 °C 1020.9 hPa NE 12.6 km/h 15.8 km/h 93 % 0.0 mm
12:48 0.4 °C -0.6 °C 1020.9 hPa NE 16.3 km/h 16.3 km/h 93 % 0.0 mm
12:53 0.3 °C -1.0 °C 1020.9 hPa NE 15.8 km/h 17.2 km/h 91 % 0.0 mm
12:58 0.3 °C -1.2 °C 1020.9 hPa NNE 15.8 km/h 18.3 km/h 90 % 0.0 mm
13:03 0.4 °C -1.1 °C 1020.9 hPa NE 14.0 km/h 18.3 km/h 90 % 0.0 mm
13:08 0.4 °C -1.2 °C 1020.9 hPa NNE 12.6 km/h 17.2 km/h 89 % 0.0 mm
13:13 0.4 °C -1.2 °C 1020.9 hPa NE 12.2 km/h 19.8 km/h 89 % 0.0 mm
13:18 0.4 °C -1.2 °C 1020.9 hPa NNE 10.5 km/h 19.8 km/h 89 % 0.0 mm
13:23 0.6 °C -1.0 °C 1019.9 hPa NE 16.3 km/h 16.3 km/h 89 % 0.0 mm
13:28 0.6 °C -1.0 °C 1019.9 hPa NNE 12.6 km/h 16.6 km/h 89 % 0.0 mm
13:33 0.6 °C -1.2 °C 1019.9 hPa NNE 12.2 km/h 17.2 km/h 88 % 0.0 mm
13:38 0.5 °C -1.3 °C 1019.9 hPa NE 15.8 km/h 17.7 km/h 88 % 0.0 mm
13:43 0.5 °C -1.3 °C 1019.9 hPa NE 14.0 km/h 17.7 km/h 88 % 0.0 mm
13:44 0.5 °C -1.3 °C 1019.9 hPa NNE 16.3 km/h 17.7 km/h 88 % 0.0 mm
13:49 0.4 °C -1.4 °C 1019.9 hPa NE 15.1 km/h 17.2 km/h 88 % 0.0 mm
13:54 0.4 °C -1.4 °C 1019.9 hPa NNE 12.6 km/h 16.9 km/h 88 % 0.0 mm
13:59 0.4 °C -1.4 °C 1019.9 hPa NE 15.4 km/h 17.7 km/h 88 % 0.0 mm
14:04 0.4 °C -1.4 °C 1019.9 hPa NE 8.7 km/h 18.0 km/h 88 % 0.0 mm
14:09 0.4 °C -1.4 °C 1019.9 hPa ENE 11.9 km/h 18.0 km/h 88 % 0.0 mm
14:14 0.4 °C -1.4 °C 1019.9 hPa NE 13.7 km/h 17.2 km/h 88 % 0.0 mm
14:19 0.4 °C -1.4 °C 1019.9 hPa NE 12.6 km/h 20.1 km/h 88 % 0.0 mm
14:24 0.4 °C -1.4 °C 1019.9 hPa NE 14.3 km/h 20.1 km/h 88 % 0.0 mm
14:29 0.4 °C -1.5 °C 1019.9 hPa East 12.6 km/h 16.9 km/h 87 % 0.0 mm
14:34 0.4 °C -1.4 °C 1019.9 hPa NE 13.7 km/h 16.9 km/h 88 % 0.0 mm
14:39 0.4 °C -1.4 °C 1019.9 hPa NE 11.9 km/h 15.8 km/h 88 % 0.0 mm
14:44 0.4 °C -1.4 °C 1019.9 hPa NE 13.0 km/h 17.7 km/h 88 % 0.0 mm
14:49 0.5 °C -1.3 °C 1019.9 hPa NNE 10.1 km/h 17.7 km/h 88 % 0.0 mm
14:54 0.6 °C -1.2 °C 1019.9 hPa NE 14.0 km/h 17.7 km/h 88 % 0.0 mm
14:59 0.6 °C -1.2 °C 1019.9 hPa NNE 9.7 km/h 16.3 km/h 88 % 0.0 mm
15:04 0.6 °C -1.2 °C 1019.9 hPa NE 16.9 km/h 16.9 km/h 88 % 0.0 mm
15:09 0.6 °C -1.3 °C 1018.8 hPa ENE 15.8 km/h 17.7 km/h 87 % 0.0 mm
15:14 0.7 °C -1.2 °C 1018.8 hPa NE 13.7 km/h 17.7 km/h 87 % 0.0 mm
15:19 0.7 °C -1.2 °C 1018.8 hPa NNE 11.9 km/h 14.8 km/h 87 % 0.0 mm
15:24 0.7 °C -1.2 °C 1019.9 hPa NE 11.9 km/h 14.0 km/h 87 % 0.0 mm
15:29 0.6 °C -1.2 °C 1019.9 hPa North 12.6 km/h 14.0 km/h 88 % 0.0 mm
15:35 0.6 °C -1.2 °C 1019.9 hPa NNE 12.2 km/h 16.6 km/h 88 % 0.0 mm
15:40 0.6 °C -1.2 °C 1019.9 hPa NNE 10.1 km/h 16.6 km/h 88 % 0.0 mm
15:45 0.6 °C -1.2 °C 1019.9 hPa NNE 12.6 km/h 15.4 km/h 88 % 0.0 mm
15:50 0.5 °C -1.3 °C 1019.9 hPa NNE 8.7 km/h 15.4 km/h 88 % 0.0 mm
15:55 0.5 °C -1.3 °C 1018.8 hPa NE 12.2 km/h 16.3 km/h 88 % 0.0 mm
16:00 0.6 °C -1.2 °C 1018.8 hPa NNW 7.9 km/h 16.3 km/h 88 % 0.0 mm
16:05 0.6 °C -1.2 °C 1018.8 hPa NNE 9.0 km/h 15.8 km/h 88 % 0.0 mm
16:10 0.6 °C -1.0 °C 1018.8 hPa NE 13.0 km/h 15.8 km/h 89 % 0.0 mm
16:15 0.5 °C -1.1 °C 1018.8 hPa North 13.0 km/h 15.8 km/h 89 % 0.0 mm
16:20 0.5 °C -1.1 °C 1018.8 hPa NNE 12.2 km/h 15.8 km/h 89 % 0.0 mm
16:25 0.5 °C -1.1 °C 1018.8 hPa NNE 9.3 km/h 15.8 km/h 89 % 0.0 mm
16:30 0.5 °C -1.1 °C 1018.8 hPa NNE 9.0 km/h 13.0 km/h 89 % 0.0 mm
16:35 0.5 °C -1.1 °C 1018.8 hPa North 9.7 km/h 16.3 km/h 89 % 0.0 mm
16:40 0.5 °C -1.1 °C 1018.8 hPa NNE 8.7 km/h 16.3 km/h 89 % 0.0 mm
16:45 0.5 °C -1.1 °C 1018.8 hPa NE 9.7 km/h 15.8 km/h 89 % 0.0 mm
16:50 0.5 °C -1.1 °C 1018.8 hPa North 11.6 km/h 16.6 km/h 89 % 0.0 mm
16:55 0.5 °C -1.1 °C 1019.9 hPa NNE 14.0 km/h 16.6 km/h 89 % 0.0 mm
17:00 0.4 °C -1.2 °C 1019.9 hPa NE 12.6 km/h 14.0 km/h 89 % 0.0 mm
17:05 0.4 °C -1.2 °C 1019.9 hPa NE 10.1 km/h 14.0 km/h 89 % 0.0 mm
17:10 0.4 °C -1.2 °C 1019.9 hPa NE 6.1 km/h 14.0 km/h 89 % 0.0 mm
17:15 0.4 °C -1.2 °C 1019.9 hPa NE 10.1 km/h 14.0 km/h 89 % 0.0 mm
17:20 0.4 °C -1.2 °C 1019.9 hPa NNE 13.7 km/h 14.0 km/h 89 % 0.0 mm
17:25 0.4 °C -1.2 °C 1019.9 hPa NE 15.4 km/h 15.4 km/h 89 % 0.0 mm
17:30 0.4 °C -1.1 °C 1019.9 hPa NNE 9.3 km/h 15.8 km/h 90 % 0.0 mm
17:35 0.4 °C -1.1 °C 1019.9 hPa NNE 6.1 km/h 15.8 km/h 90 % 0.0 mm
17:40 0.4 °C -1.1 °C 1019.9 hPa NE 9.7 km/h 14.0 km/h 90 % 0.0 mm
17:45 0.4 °C -1.1 °C 1019.9 hPa NE 7.9 km/h 15.4 km/h 90 % 0.0 mm
17:50 0.4 °C -1.1 °C 1019.9 hPa NNE 6.1 km/h 15.4 km/h 90 % 0.0 mm
17:55 0.4 °C -1.1 °C 1019.9 hPa NNE 11.9 km/h 11.9 km/h 90 % 0.0 mm
18:00 0.4 °C -1.1 °C 1019.9 hPa ENE 10.8 km/h 12.2 km/h 90 % 0.0 mm
18:03 0.3 °C -1.2 °C 1019.9 hPa NE 10.5 km/h 12.2 km/h 90 % 0.0 mm
18:08 0.3 °C -1.2 °C 1019.9 hPa ENE 11.6 km/h 12.6 km/h 90 % 0.0 mm
18:10 0.3 °C -1.2 °C 1019.9 hPa NE 10.5 km/h 12.6 km/h 90 % 0.0 mm
18:13 0.3 °C -1.2 °C 1019.9 hPa NNE 8.7 km/h 13.0 km/h 90 % 0.0 mm
18:18 0.3 °C -1.2 °C 1019.9 hPa NE 11.9 km/h 13.0 km/h 90 % 0.0 mm
18:21 0.3 °C -1.2 °C 1019.9 hPa North 9.7 km/h 13.0 km/h 90 % 0.0 mm
18:26 0.3 °C -1.2 °C 1018.8 hPa NE 8.7 km/h 15.1 km/h 90 % 0.0 mm
18:28 0.3 °C -1.2 °C 1018.8 hPa NE 8.7 km/h 15.1 km/h 90 % 0.0 mm
18:31 0.3 °C -1.2 °C 1018.8 hPa North 6.9 km/h 15.1 km/h 90 % 0.0 mm
18:36 0.3 °C -1.2 °C 1018.8 hPa NE 8.7 km/h 11.1 km/h 90 % 0.0 mm
18:38 0.3 °C -1.2 °C 1019.9 hPa ENE 9.7 km/h 14.0 km/h 90 % 0.0 mm
18:43 0.3 °C -1.2 °C 1019.9 hPa NE 10.5 km/h 14.0 km/h 90 % 0.0 mm
18:48 0.3 °C -1.2 °C 1019.9 hPa North 5.8 km/h 12.6 km/h 90 % 0.0 mm
18:49 0.3 °C -1.2 °C 1019.9 hPa NNE 8.7 km/h 12.6 km/h 90 % 0.0 mm
18:53 0.3 °C -1.0 °C 1019.9 hPa North 8.7 km/h 12.6 km/h 91 % 0.0 mm
18:58 0.3 °C -1.0 °C 1019.9 hPa NE 6.9 km/h 12.6 km/h 91 % 0.0 mm
19:03 0.3 °C -1.0 °C 1019.9 hPa NNE 5.8 km/h 11.6 km/h 91 % 0.0 mm
19:08 0.3 °C -1.0 °C 1019.9 hPa NNE 7.9 km/h 11.9 km/h 91 % 0.0 mm
19:13 0.3 °C -1.2 °C 1019.9 hPa NE 11.9 km/h 13.7 km/h 90 % 0.0 mm
19:18 0.3 °C -1.2 °C 1019.9 hPa NNE 12.2 km/h 13.7 km/h 90 % 0.0 mm
19:23 0.3 °C -1.2 °C 1018.8 hPa NNW 9.0 km/h 12.2 km/h 90 % 0.0 mm
19:28 0.3 °C -1.0 °C 1018.8 hPa NE 10.8 km/h 12.2 km/h 91 % 0.0 mm
19:33 0.3 °C -1.0 °C 1018.8 hPa NE 9.0 km/h 10.8 km/h 91 % 0.0 mm
19:38 0.3 °C -1.0 °C 1020.9 hPa North 9.7 km/h 10.5 km/h 91 % 0.0 mm
19:43 0.2 °C -1.1 °C 1020.9 hPa NE 6.9 km/h 10.5 km/h 91 % 0.0 mm
19:48 0.2 °C -1.1 °C 1020.9 hPa NE 11.6 km/h 11.6 km/h 91 % 0.0 mm
19:53 0.2 °C -1.1 °C 1019.9 hPa NE 9.3 km/h 11.6 km/h 91 % 0.0 mm
19:58 0.2 °C -1.1 °C 1019.9 hPa ENE 7.9 km/h 12.2 km/h 91 % 0.0 mm
20:03 0.2 °C -1.1 °C 1019.9 hPa NNE 7.9 km/h 12.2 km/h 91 % 0.0 mm
20:08 0.2 °C -1.1 °C 1019.9 hPa NE 9.3 km/h 10.8 km/h 91 % 0.0 mm
20:13 0.2 °C -1.1 °C 1019.9 hPa NNE 10.5 km/h 12.6 km/h 91 % 0.0 mm
20:18 0.1 °C -1.1 °C 1019.9 hPa NE 10.5 km/h 12.6 km/h 92 % 0.0 mm
20:23 0.1 °C -1.1 °C 1019.9 hPa NE 8.7 km/h 10.5 km/h 92 % 0.0 mm
20:28 0.1 °C -1.1 °C 1019.9 hPa NNE 5.8 km/h 10.5 km/h 92 % 0.0 mm
20:33 0.0 °C -1.0 °C 1019.9 hPa NNE 6.1 km/h 10.5 km/h 93 % 0.0 mm
20:38 0.0 °C -1.0 °C 1019.9 hPa NE 6.1 km/h 10.1 km/h 93 % 0.0 mm
20:43 0.0 °C -1.0 °C 1019.9 hPa NE 4.3 km/h 9.3 km/h 93 % 0.0 mm
20:48 0.0 °C -1.0 °C 1019.9 hPa NE 6.9 km/h 9.3 km/h 93 % 0.0 mm
20:53 0.0 °C -1.0 °C 1019.9 hPa NNE 4.3 km/h 9.3 km/h 93 % 0.0 mm
20:59 0.0 °C -1.0 °C 1019.9 hPa NNE 5.5 km/h 9.7 km/h 93 % 0.0 mm
21:04 -0.1 °C -0.8 °C 1019.9 hPa NE 6.1 km/h 9.7 km/h 95 % 0.0 mm
21:09 -0.1 °C -0.8 °C 1019.9 hPa NNE 6.1 km/h 9.0 km/h 95 % 0.0 mm
21:14 -0.1 °C -0.8 °C 1019.9 hPa NNE 5.5 km/h 9.0 km/h 95 % 0.0 mm
21:19 -0.1 °C -0.8 °C 1019.9 hPa NE 9.0 km/h 10.5 km/h 95 % 0.0 mm
21:24 -0.1 °C -0.8 °C 1019.9 hPa NNE 5.0 km/h 10.5 km/h 95 % 0.0 mm
21:29 -0.1 °C -0.8 °C 1019.9 hPa NE 9.0 km/h 10.5 km/h 95 % 0.0 mm
21:34 -0.1 °C -0.7 °C 1019.9 hPa NE 9.7 km/h 11.6 km/h 96 % 0.0 mm
21:39 -0.1 °C -0.7 °C 1019.9 hPa NNE 8.7 km/h 11.6 km/h 96 % 0.0 mm
21:44 -0.1 °C -0.7 °C 1019.9 hPa NE 9.0 km/h 10.5 km/h 96 % 0.0 mm
21:49 -0.1 °C -0.7 °C 1019.9 hPa NNE 9.7 km/h 10.5 km/h 96 % 0.0 mm
21:54 -0.1 °C -0.7 °C 1018.8 hPa North 7.6 km/h 11.6 km/h 96 % 0.0 mm
21:59 -0.1 °C -0.7 °C 1018.8 hPa NE 9.0 km/h 11.6 km/h 96 % 0.0 mm
22:04 -0.1 °C -0.7 °C 1018.8 hPa NNE 6.1 km/h 10.5 km/h 96 % 0.0 mm
22:09 -0.1 °C -0.7 °C 1019.9 hPa NNE 6.4 km/h 10.5 km/h 96 % 0.0 mm
22:14 -0.1 °C -0.5 °C 1019.9 hPa NNE 9.0 km/h 10.5 km/h 97 % 0.0 mm
22:19 -0.1 °C -0.5 °C 1019.9 hPa NNE 9.7 km/h 10.1 km/h 97 % 0.0 mm
22:24 -0.1 °C -0.5 °C 1019.9 hPa NNE 5.0 km/h 9.7 km/h 97 % 0.0 mm
22:29 -0.1 °C -0.5 °C 1019.9 hPa NE 9.3 km/h 10.5 km/h 97 % 0.0 mm
22:34 -0.1 °C -0.5 °C 1019.9 hPa NE 9.7 km/h 12.6 km/h 97 % 0.0 mm
22:39 -0.1 °C -0.5 °C 1019.9 hPa NNE 5.5 km/h 13.0 km/h 97 % 0.0 mm
22:44 0.0 °C -0.4 °C 1019.9 hPa NE 5.5 km/h 13.0 km/h 97 % 0.0 mm
22:49 0.0 °C -0.4 °C 1019.9 hPa North 6.1 km/h 10.8 km/h 97 % 0.0 mm
22:54 0.0 °C -0.4 °C 1018.8 hPa NNE 5.8 km/h 10.8 km/h 97 % 0.0 mm
22:59 0.0 °C -0.4 °C 1018.8 hPa NE 7.2 km/h 10.5 km/h 97 % 0.0 mm
23:04 0.0 °C -0.4 °C 1018.8 hPa NNE 6.1 km/h 10.5 km/h 97 % 0.0 mm
23:09 0.0 °C -0.4 °C 1019.9 hPa NE 8.7 km/h 10.5 km/h 97 % 0.0 mm
23:14 0.0 °C -0.4 °C 1019.9 hPa North 6.1 km/h 10.5 km/h 97 % 0.0 mm
23:19 0.0 °C -0.4 °C 1019.9 hPa NE 5.0 km/h 10.5 km/h 97 % 0.0 mm
23:24 0.0 °C -0.4 °C 1019.9 hPa NNE 8.7 km/h 9.0 km/h 97 % 0.0 mm
23:29 0.0 °C -0.4 °C 1019.9 hPa North 7.6 km/h 9.3 km/h 97 % 0.0 mm
23:34 0.0 °C -0.4 °C 1019.9 hPa NNE 6.4 km/h 9.3 km/h 97 % 0.0 mm
23:39 0.1 °C -0.3 °C 1018.8 hPa NE 5.5 km/h 9.3 km/h 97 % 0.0 mm
23:44 0.1 °C -0.3 °C 1018.8 hPa NNE 6.4 km/h 9.3 km/h 97 % 0.0 mm
23:49 0.1 °C -0.3 °C 1018.8 hPa North 4.7 km/h 9.0 km/h 97 % 0.0 mm
23:54 0.1 °C -0.3 °C 1019.9 hPa NNE 6.1 km/h 10.5 km/h 97 % 0.0 mm
23:59 0.1 °C -0.3 °C 1019.9 hPa North 7.6 km/h 10.5 km/h 97 % 0.0 mm
Le Gheer Warneton
Courtoisie de Weather Underground - 2.25 mb

Mise a jour : 18/12/2017 21:33:12
Généré par Cumulus 1.9.4 (1099)